• In Uzbekistan
  • List of Countries
  • For 7 days
  • Water Temperature
  • Satellite Maps
  • Weather Map
  • Weather Widgets
  • user-avatar
    Login

    Hourly Weather Canillo

    Today, 30 April, Sunday

    Time Temperature Precipitation Wind Pressure Humidity
    00:00 -1°C° 0 mm 2 mps 613 mmHg 91%
    01:00 -1°C° 0 mm 2 mps 612 mmHg 91%
    02:00 -2°C° 0 mm 2 mps 612 mmHg 91%
    03:00 -2°C° 0 mm 2 mps 612 mmHg 91%
    04:00 -1°C° 0 mm 2 mps 612 mmHg 89%
    05:00 +1°C° 0 mm 2 mps 612 mmHg 87%
    06:00 +1°C° 0 mm 2 mps 612 mmHg 84%
    07:00 +2°C° 0 mm 3 mps 613 mmHg 77%
    08:00 +4°C° 0 mm 3 mps 613 mmHg 70%
    09:00 +7°C° 0 mm 3 mps 614 mmHg 62%
    10:00 +7°C° 0 mm 4 mps 614 mmHg 57%
    11:00 +8°C° 0 mm 4 mps 614 mmHg 52%
    12:00 +11°C° 0 mm 4 mps 614 mmHg 46%
    13:00 +10°C° 0.3 mm 4 mps 614 mmHg 54%
    14:00 +8°C° 0.3 mm 4 mps 613 mmHg 61%
    15:00 +7°C° 0.3 mm 4 mps 613 mmHg 68%
    16:00 +5°C° 0.5 mm 4 mps 613 mmHg 76%
    17:00 +3°C° 0.5 mm 3 mps 612 mmHg 84%
    18:00 +1°C° 0.5 mm 3 mps 612 mmHg 92%
    19:00 +1°C° 0.4 mm 2 mps 612 mmHg 93%
    20:00 +1°C° 0.4 mm 2 mps 613 mmHg 94%
    21:00 +1°C° 0.4 mm 1 mps 613 mmHg 95%
    22:00 0°C° 0.2 mm 1 mps 613 mmHg 94%
    23:00 0°C° 0.2 mm 1 mps 613 mmHg 93%

    Tomorrow, 1 May, Monday

    Time Temperature Precipitation Wind Pressure Humidity
    00:00 -1°C° 0.2 mm 1 mps 613 mmHg 92%
    01:00 -1°C° 0.1 mm 1 mps 614 mmHg 92%
    02:00 -2°C° 0.1 mm 1 mps 614 mmHg 92%
    03:00 -2°C° 0.1 mm 1 mps 614 mmHg 92%
    04:00 -4°C° 0 mm 2 mps 614 mmHg 90%
    05:00 -4°C° 0 mm 2 mps 615 mmHg 87%
    06:00 -4°C° 0 mm 2 mps 615 mmHg 84%
    07:00 -2°C° 0 mm 2 mps 616 mmHg 76%
    08:00 +1°C° 0 mm 2 mps 618 mmHg 67%
    09:00 +3°C° 0 mm 2 mps 619 mmHg 59%
    10:00 +4°C° 0 mm 2 mps 619 mmHg 56%
    11:00 +5°C° 0 mm 2 mps 619 mmHg 53%
    12:00 +6°C° 0 mm 2 mps 620 mmHg 50%
    13:00 +6°C° 0.1 mm 2 mps 619 mmHg 53%
    14:00 +5°C° 0.1 mm 2 mps 619 mmHg 56%
    15:00 +5°C° 0.1 mm 2 mps 619 mmHg 59%
    16:00 +4°C° 0 mm 2 mps 619 mmHg 63%
    17:00 +4°C° 0 mm 2 mps 619 mmHg 67%
    18:00 +4°C° 0 mm 1 mps 619 mmHg 71%
    19:00 +3°C° 0 mm 1 mps 619 mmHg 78%
    20:00 +1°C° 0 mm 1 mps 618 mmHg 85%
    21:00 0°C° 0 mm 1 mps 618 mmHg 91%
    22:00 -1°C° 0 mm 1 mps 618 mmHg 91%
    23:00 -1°C° 0 mm 1 mps 617 mmHg 91%

    Day after tomorrow, 2 May, Tuesday

    Time Temperature Precipitation Wind Pressure Humidity
    00:00 -1°C° 0 mm 1 mps 617 mmHg 91%
    01:00 -1°C° 0 mm 1 mps 617 mmHg 91%
    02:00 -1°C° 0 mm 1 mps 617 mmHg 90%
    03:00 -1°C° 0 mm 1 mps 617 mmHg 90%
    04:00 0°C° 0 mm 1 mps 617 mmHg 87%
    05:00 +1°C° 0 mm 1 mps 617 mmHg 83%
    06:00 +2°C° 0 mm 1 mps 618 mmHg 80%
    07:00 +4°C° 0.1 mm 1 mps 619 mmHg 73%
    08:00 +6°C° 0.1 mm 1 mps 619 mmHg 66%
    09:00 +8°C° 0.1 mm 1 mps 620 mmHg 60%
    10:00 +7°C° 0.3 mm 2 mps 620 mmHg 61%
    11:00 +8°C° 0.3 mm 2 mps 620 mmHg 63%
    12:00 +8°C° 0.3 mm 3 mps 620 mmHg 65%
    13:00 +8°C° 1.2 mm 3 mps 620 mmHg 70%
    14:00 +7°C° 1.2 mm 3 mps 619 mmHg 76%
    15:00 +5°C° 1.2 mm 3 mps 619 mmHg 81%
    16:00 +6°C° 1.1 mm 2 mps 619 mmHg 84%
    17:00 +6°C° 1.1 mm 1 mps 619 mmHg 87%
    18:00 +5°C° 1.1 mm 1 mps 618 mmHg 91%
    19:00 +4°C° 0.2 mm 1 mps 618 mmHg 93%
    20:00 +3°C° 0.2 mm 1 mps 618 mmHg 94%
    21:00 +2°C° 0.2 mm 1 mps 618 mmHg 96%
    22:00 +2°C° 0.1 mm 1 mps 618 mmHg 96%
    23:00 +2°C° 0.1 mm 1 mps 618 mmHg 96%

    3 May, Wednesday

    Time Temperature Precipitation Wind Pressure Humidity
    00:00 +1°C° 0.1 mm 1 mps 618 mmHg 96%
    01:00 +1°C° 0 mm 1 mps 617 mmHg 96%
    02:00 +1°C° 0 mm 1 mps 617 mmHg 97%
    03:00 -1°C° 0 mm 0 mps 617 mmHg 97%
    04:00 0°C° 0 mm 0 mps 617 mmHg 96%
    05:00 +1°C° 0 mm 0 mps 617 mmHg 95%
    06:00 +2°C° 0 mm 0 mps 618 mmHg 94%
    07:00 +5°C° 0 mm 1 mps 619 mmHg 88%
    08:00 +6°C° 0 mm 1 mps 619 mmHg 82%
    09:00 +8°C° 0 mm 1 mps 620 mmHg 76%
    10:00 +8°C° 0.1 mm 1 mps 620 mmHg 72%
    11:00 +8°C° 0.1 mm 2 mps 620 mmHg 69%
    12:00 +9°C° 0.1 mm 2 mps 620 mmHg 65%
    13:00 +9°C° 0.1 mm 2 mps 620 mmHg 64%
    14:00 +9°C° 0.1 mm 2 mps 620 mmHg 63%
    15:00 +10°C° 0.1 mm 2 mps 620 mmHg 61%
    16:00 +9°C° 0.1 mm 2 mps 619 mmHg 67%
    17:00 +9°C° 0.1 mm 1 mps 619 mmHg 72%
    18:00 +8°C° 0.1 mm 1 mps 618 mmHg 78%
    19:00 +6°C° 0 mm 1 mps 618 mmHg 83%
    20:00 +4°C° 0 mm 1 mps 617 mmHg 88%
    21:00 +2°C° 0 mm 1 mps 616 mmHg 94%
    22:00 +2°C° 0 mm 1 mps 616 mmHg 94%
    23:00 +2°C° 0 mm 1 mps 616 mmHg 94%

    4 May, Thursday

    Time Temperature Precipitation Wind Pressure Humidity
    00:00 +1°C° 0 mm 1 mps 616 mmHg 94%
    01:00 +1°C° 0 mm 1 mps 615 mmHg 94%
    02:00 0°C° 0 mm 0 mps 615 mmHg 94%
    03:00 0°C° 0 mm 0 mps 614 mmHg 94%
    04:00 +2°C° 0 mm 1 mps 615 mmHg 92%
    05:00 +3°C° 0 mm 1 mps 615 mmHg 90%
    06:00 +5°C° 0 mm 1 mps 616 mmHg 88%
    07:00 +7°C° 0 mm 1 mps 617 mmHg 79%
    08:00 +9°C° 0 mm 1 mps 618 mmHg 71%
    09:00 +11°C° 0 mm 1 mps 618 mmHg 62%
    10:00 +11°C° 0 mm 1 mps 618 mmHg 60%
    11:00 +12°C° 0 mm 2 mps 618 mmHg 58%
    12:00 +13°C° 0 mm 2 mps 618 mmHg 56%
    13:00 +12°C° 0 mm 2 mps 618 mmHg 58%
    14:00 +12°C° 0 mm 2 mps 618 mmHg 60%
    15:00 +12°C° 0 mm 2 mps 617 mmHg 63%
    16:00 +10°C° 0 mm 2 mps 617 mmHg 68%
    17:00 +10°C° 0 mm 1 mps 617 mmHg 72%
    18:00 +10°C° 0 mm 1 mps 617 mmHg 77%
    19:00 +8°C° 0 mm 1 mps 616 mmHg 83%
    20:00 +6°C° 0 mm 1 mps 616 mmHg 88%
    21:00 +5°C° 0 mm 1 mps 615 mmHg 93%
    22:00 +5°C° 0 mm 1 mps 615 mmHg 93%
    23:00 +5°C° 0 mm 1 mps 615 mmHg 93%

    5 May, Friday

    Time Temperature Precipitation Wind Pressure Humidity
    00:00 +4°C° 0 mm 2 mps 615 mmHg 92%
    01:00 +4°C° 0 mm 2 mps 615 mmHg 92%
    02:00 +4°C° 0 mm 2 mps 615 mmHg 93%
    03:00 +4°C° 0 mm 2 mps 614 mmHg 93%
    04:00 +4°C° 0 mm 2 mps 615 mmHg 90%
    05:00 +5°C° 0 mm 2 mps 615 mmHg 87%
    06:00 +6°C° 0 mm 2 mps 615 mmHg 84%
    07:00 +8°C° 0 mm 2 mps 616 mmHg 75%
    08:00 +10°C° 0 mm 3 mps 617 mmHg 66%
    09:00 +12°C° 0 mm 3 mps 618 mmHg 56%
    10:00 +13°C° 0 mm 3 mps 618 mmHg 52%
    11:00 +14°C° 0 mm 3 mps 619 mmHg 48%
    12:00 +15°C° 0 mm 4 mps 619 mmHg 44%
    13:00 +15°C° 0 mm 4 mps 619 mmHg 47%
    14:00 +14°C° 0 mm 3 mps 618 mmHg 50%
    15:00 +14°C° 0 mm 3 mps 618 mmHg 53%
    16:00 +12°C° 0 mm 3 mps 617 mmHg 58%
    17:00 +11°C° 0 mm 3 mps 617 mmHg 64%
    18:00 +9°C° 0 mm 3 mps 616 mmHg 69%
    19:00 +8°C° 0 mm 2 mps 616 mmHg 71%
    20:00 +7°C° 0 mm 2 mps 615 mmHg 73%
    21:00 +6°C° 0 mm 2 mps 615 mmHg 75%
    22:00 +6°C° 0.1 mm 2 mps 615 mmHg 75%
    23:00 +6°C° 0.1 mm 2 mps 615 mmHg 74%
    Show more